www.pogodaiklimat.ru

Погода и климат >> Архив погоды >> Южная Африка >> Punda Maria


ПОГОДА в Punda Maria

  • Прогноз погоды в Punda Maria
  • Монитор погоды в Punda Maria

АРХИВ ПОГОДЫ в Punda Maria

Время (UTC), дата Ветер
(напр.,м/с)
 
Видим.   Явления Облачность Т
(С)
Тd
(С)
f
(%)
Тe
(С)
Тes
(С)
Комфортность P
(гПа)
Po
(гПа)
Тmin
(С)
Tmax
(С)
R
(мм)
R24
(мм)
S
(см)
21 11.07 штиль 0 н/о н/о +17.2 +3.2 39 +17 +17 968.2 +17.2 +29.0
00 12.07 З 1 н/о н/о +16.3 +3.1 41 +17 +17 967.6 +15.8 +29.0
03 12.07 З 1 н/о н/о +14.4 +3.9 49 +15 +15 967.4 +14.4 +29.0
06 12.07 штиль 0 н/о н/о +16.4 +6.3 51 +16 +16 969.0 +13.9
09 12.07 СЗ 1 н/о н/о +27.2 +4.5 23 +26 +26 жарко 969.9 +13.9 +27.2
12 12.07 В 1 н/о н/о +29.0 +1.8 17 +27 +27 жарко 967.4 +13.9 +29.5 2
15 12.07 штиль 0 н/о н/о +25.2 -1.3 17 +23 +23 комфорт 967.1 +25.2 +29.5
18 12.07 С 1 н/о н/о +20.5 -0.0 25 +22 +22 комфорт 968.3 +20.3 +29.5 2
21 12.07 штиль 0 н/о н/о +18.1 +0.3 30 +18 +18 969.1 +18.0 +29.5
00 13.07 Ю 2 н/о н/о +16.7 +10.3 66 +17 +17 970.9 +16.1 +29.5 2
09 14.07 ЮВ 1 н/о н/о +23.0 +11.8 49 +25 +25 комфорт 971.8 +12.3 +23.0
12 14.07 ЮВ 1 н/о н/о +25.5 +10.3 38 +26 +26 жарко 968.4 +12.3 +26.0
15 14.07 штиль 0 н/о н/о +23.6 +7.4 35 +24 +24 комфорт 967.9 +23.6 +26.1
18 14.07 штиль 0 н/о н/о +19.6 +9.3 51 +20 +20 969.1 +19.6 +26.1
21 14.07 штиль 0 н/о н/о +16.4 +9.4 63 +16 +16 971.0 +16.4 +26.1
00 15.07 штиль 0 н/о н/о +15.4 +9.3 67 +15 +15 968.2 +15.2 +26.1
06 15.07 штиль 0 н/о н/о +14.0 +10.0 77 +14 +14 971.6 +11.1
09 15.07 ЮВ 1 н/о н/о +23.2 +11.1 46 +25 +25 комфорт 971.9 +11.1 +23.2
12 15.07 ЮВ 1 н/о н/о +25.6 +9.2 35 +26 +26 жарко 969.1 +11.1 +25.8
15 15.07 штиль 0 н/о н/о +23.2 +8.6 39 +24 +24 комфорт 968.7 +23.2 +26.0
18 15.07 СВ 2 н/о н/о +20.8 +8.2 44 +23 +23 комфорт 969.8 +19.7 +26.0
21 15.07 штиль 0 н/о н/о +16.4 +7.9 57 +16 +16 971.0 +16.4 +26.0
00 16.07 штиль 0 н/о н/о +15.1 +8.1 63 +15 +15 970.6 +15.0 +26.0
03 16.07 штиль 0 н/о н/о +13.2 +7.6 69 +13 +13 970.6 +13.1 +26.0
06 16.07 штиль 0 н/о н/о +14.8 +9.6 71 +15 +15 972.6 +13.0
09 16.07 ЮВ 1 н/о н/о +23.8 +10.6 43 +25 +25 комфорт 972.8 +13.0 +23.8
12 16.07 В 1 н/о н/о +25.8 +7.1 30 +26 +26 жарко 969.6 +13.0 +25.8
15 16.07 В 1 н/о н/о +23.8 +4.9 29 +24 +24 комфорт 969.4 +23.8 +25.8
18 16.07 штиль 0 н/о н/о +18.5 +5.4 42 +19 +19 971.3 +18.5 +25.8
21 16.07 штиль 0 н/о н/о +16.4 +5.7 49 +16 +16 972.1 +16.4 +25.8
00 17.07 СЗ 1 н/о н/о +15.6 +6.6 55 +16 +16 971.3 +15.6 +25.8
03 17.07 штиль 0 н/о н/о +14.4 +8.4 67 +14 +14 971.0 +13.6 +25.8
06 17.07 штиль 0 н/о н/о +14.7 +9.3 70 +14 +14 972.4 +13.5
09 17.07 ЮВ 1 н/о н/о +24.1 +7.4 34 +24 +24 комфорт 972.6 +13.5 +24.1
12 17.07 В 1 н/о н/о +26.5 +5.1 25 +26 +26 жарко 969.5 +13.5 +26.5
15 17.07 штиль 0 н/о н/о +22.5 +0.5 23 +22 +22 комфорт 968.9 +22.5 +26.5
18 17.07 штиль 0 н/о н/о +18.5 +1.6 32 +19 +19 969.4 +18.5 +26.5
21 17.07 штиль 0 н/о н/о +17.0 +1.9 36 +17 +17 969.8 +14.5 +26.5
00 18.07 СЗ 1 н/о н/о +16.4 +3.2 41 +17 +17 969.3 +14.5 +26.5
03 18.07 штиль 0 н/о н/о +14.1 +4.1 51 +14 +14 968.9 +13.9 +26.5
06 18.07 З 1 н/о н/о +16.0 +5.3 49 +17 +17 969.5 +12.9
09 18.07 З 2 н/о н/о +25.5 +5.9 28 +25 +25 комфорт 969.5 +12.9 +25.5
12 18.07 З 1 н/о н/о +28.0 +0.9 17 +26 +26 жарко 966.1 +12.9 +28.1
15 18.07 штиль 0 н/о н/о +24.8 -1.6 17 +23 +23 комфорт 965.1 +24.7 +28.1
18 18.07 штиль 0 н/о н/о +20.1 -2.1 22 +20 +20 965.7 +20.0 +28.1

 

Местоположение метеостанции Punda Maria (Южная Африка): широта -22.68 долгота 31.02 высота над уровнем моря 457 м.

В архиве по умолчанию представлена погода в Punda Maria за последнюю неделю. Архивные данные за месяц целиком и за предыдущие месяцы, начиная с января 2011 года, Вы можете получить, выбрав интересующий диапазон дат из раскрывающегося списка и нажав кнопку "Ввод!".


*Определитесь, кто Вы:
робот инопланетянин человек

Внимание! Время в таблицах - всемирное. Для получения местного времени необходимо прибавить поправку, которая равна 2 ч.

Смотрите также архив погоды в соседних городах и на ближайших метеорологических станциях:

Погода в Тхохояндоу (Южная Африка) (62 км)
Погода в Тхохояндоу (Южная Африка) (78 км)
Погода в Левубу (Южная Африка) (88 км)
Погода в Байтбридже (Зимбабве) (117 км)
Погода в Пхалаборве (Южная Африка) (141 км)
Погода в Тзанеен-Греншоек (Южная Африка) (154 км)
Погода в Тзанеене (Южная Африка) (156 км)
Погода в Маре (Южная Африка) (157 км)
Погода в Ньоняне (Свазиленд) (179 км)
Погода в Вувулане (Свазиленд) (183 км)

Пояснения к столбцам:

Ветер - указаны скорость ветра в м/с - средняя за 10 мин, порывы в срок и между сроками (в фигурных скобках) и направление, откуда дует ветер: С - северный, СВ - северо-восточный, В - восточный, ЮВ - юго-восточный, Ю - южный, ЮЗ - юго-западный, З - западный, СЗ - северо-западный.
Видимость - горизонтальная дальность видимости в метрах или километрах. При видимости от 1 до 10 км при отсутствии осадков обычно наблюдается дымка, при ухудшении видимости до 1 км и менее - туман. В сухую погоду видимость может ухудшаться дымом, пылью или мглою.
Явления - указаны атмосферные явления, наблюдавшиеся в срок или в последний час перед сроком; фигурными скобками обозначены явления, наблюдавшиеся между сроками (за 1-3 часа до срока); квадратными скобками обозначены град или гололедные отложения с указанием их диаметра в мм.
Облачность - указаны через наклонную черту общая и нижняя облачность в баллах и высота нижней границы облаков в метрах; квадратными скобками обозначены формы облаков: Ci - перистые, Cs - перисто-слоистые, Cc - перисто-кучевые, Ac - высококучевые, As - высокослоистые, Sc - слоисто-кучевые, Ns - слоисто-дождевые, Cu - кучевые, Cb - кучево-дождевые. Подробнее классификацию облаков см. в Атласе облаков (PDF).
T - Температура воздуха - температура, измеренная на высоте 2 м над землей.
Td - Температура точки росы - температура, при понижении до которой содержащийся в воздухе водяной пар достигнет насыщения.
f - Относительная влажность воздуха - влажноcть воздуха, измеренная на высоте 2 м над землей.
Te - Эффективная температура - температура, которую ощущает одетый по сезону человек в тени. Характеристика душности погоды. При расчете учитывается влияние влажности воздуха и скорости ветра на теплоощущения человека.
Tes - Эффективная температура на солнце - температура, которую ощущает человек, с поправкой на солнечный нагрев. Характеристика знойности погоды. Зависит от высоты солнца над горизонтом, облачности и скорости ветра. Ночью, в пасмурную погоду, а также при ветре 12 м/с и более поправка равна нулю.
P - Атмосферное давление - приведенное к уровню моря атмосферное давление.
Po - Атмосферное давление - измеренное на уровне метеостанции атмосферное давление.
Tmin - Минимальная температура - минимум температуры воздуха на высоте 2 м над землей.
Tmax - Максимальная температура - максимум температуры воздуха на высоте 2 м над землей.
R - Количество осадков - Количество выпавших осадков за период времени, мм. При наведении курсора мыши на число - период времени, за который выпало указанное количество осадков.
R24 - Количество осадков - Количество выпавших осадков за 24 часа, мм.
S - Снежный покров - Высота снежного покрова, см. При наведении курсора мыши на число - состояние снежного покрова и степень покрытия местности в баллах.